Погода в Плешеве

Польша     51°53′37″N   17°47′19″E
темп.,
°C
ветер,
м/с
пор.,
м/с
влажн.,
%
обл.,
%
осадки,
мм/ч
давл.,
гПа
погр.,
м
7 марта, вс
вс701:00+1з7128578 0.0 1026549
04:00+1з8138389 0.0 1023970
07:00+1з8148495 0.1 10221210
10:00+1з81276100 0.1 10211205
13:00+2з81169100 0.1 10191075
16:00+2з8127099 0.0 1017973
19:00+1з7127795 0.0 1017696
22:000з6138537 0.0 1017551
8 марта, пн
пн801:000с479567 0.9 1018379
04:00−2ссз238761 0.2 101879
07:00−2ссз258653 0.2 1020220
10:00+2ссз45500 0.0 10211174
13:00+3сз444526 0.0 10221609
16:00+3сз455097 0.0 10211609
19:00−1с126381 0.0 102221
22:00−1з006367 0.0 102321
9 марта, вт
вт901:00−1вюв116484 0.0 102229
04:00−1ю116699 0.0 102136
07:00−1ююз1165100 0.0 1022100
10:00+1юз125499 0.0 1021565
13:00+3зюз234488 0.0 10211494
16:00+3зюз1244100 0.0 10191464
19:000юв115679 0.0 102022
22:00−1ююв22630 0.0 102128
10 марта, ср
ср1001:00−1ююв22620 0.0 102025
04:00−1юз12620 0.0 102021
07:00−1ю12650 0.0 102031
10:00+3ююз23510 0.0 1021637
13:00+6ююз34460 0.0 10211267
16:00+5юз356076 0.0 10191165
19:00+2ююз347773 0.0 101974
22:00+1ю498392 0.0 1018193
11 марта, чт
чт1101:00+1ю6118794 0.0 1016259
04:00+2ю71482100 0.0 1011359
07:00+4ююз81579100 0.2 1008599
10:00+5ююз81688100 2.6 1005760
13:00+8юз71683100 3.8 1003849
16:00+10юз81678100 0.4 1001878
19:00+8зюз8177795 1.9 1002815
22:00+6зюз5158750 0.1 1004637